[[{"header":{"parameterUnit":"m.s-1","parameterCategory":1,"la1":30.2991,"la2":30.254,"lo1":-89.0895,"lo2":-89.0444,"dy":0.0017,"dx":0.0017,"nx":28,"ny":28,"refTime":"2023-07-22T09:00:00:Z","depth":0,"parameterNumber":2,"parameterNumberName":"U-component_of_WINDS"},"data":[0,0,0,0,0,0,0,0,0,0,0,0,0,0,0,0,0,0,0,0,0,0,0,0,0,0,0,0,0,0,0,0,0,0,0,0,0,0,0,0,0,0,0,0,0,0,0,0,0,0,0,0,0,0,0,0,0,0,4.9615,4.9617,0,4.9781,4.9783,4.9785,4.9712,4.9708,4.9704,4.9701,4.9873,4.9881,4.9889,0,0,0,0,0,0,0,0,0,0,0,0,0,4.9237,4.9244,4.9615,4.9617,4.9619,4.9781,4.9783,4.9785,4.9713,4.9708,4.9703,4.9699,4.987,4.988,4.989,0,0,0,0,0,0,0,0,0,0,0,0,0,4.9402,4.9247,4.9615,4.9603,4.9603,4.978,4.9783,4.9786,4.9714,4.9708,4.9702,4.9696,4.9867,4.9879,4.9891,5.0091,0,0,4.993,4.9935,0,0,0,0,0,0,0,0,4.9393,4.9416,4.9602,4.9604,4.9605,4.972,4.9713,4.9888,4.9716,4.9672,4.97,4.9693,4.9827,4.9842,4.9887,5.0099,5.0106,4.9931,4.9938,4.9944,4.9947,0,0,0,0,0,0,0,4.9381,4.9408,4.9681,4.9605,4.9607,4.9589,4.9606,4.9745,4.9782,4.9676,4.9671,4.9691,4.9826,4.9875,4.989,5.0109,4.993,4.9942,4.9949,4.9954,5.0489,5.0495,0,0,0,0,0,0,4.937,4.9399,4.9675,4.9686,4.9481,4.9601,4.962,4.9689,4.978,4.9788,4.9696,4.9687,4.9857,4.9876,4.9896,5.0133,4.9944,4.9955,4.9963,5.0482,5.049,5.0498,0,0,0,0,0,0,4.9362,4.9395,4.9669,4.9541,4.9575,4.9614,4.9692,4.9695,4.9744,4.9796,4.9802,4.9739,4.9853,4.9879,5.0042,5.0138,4.9961,4.9973,5.0474,5.0485,5.0494,5.061,0,0,0,0,0,0,4.9351,4.9393,4.9469,4.9543,4.9582,4.9812,4.9698,4.9703,4.9765,4.9755,4.9837,4.9845,4.985,5.0024,5.0054,5.0152,4.9982,5.0466,5.0479,5.0491,5.0598,5.0623,5.0644,0,0,0,0,0,4.9338,4.9496,4.9473,4.9507,4.9678,4.9817,4.9839,4.9841,4.9774,4.985,4.9883,4.9843,5.0123,5.0041,5.0075,5.0178,5.046,5.0475,5.049,5.0587,5.0618,5.0643,0,0,0,0,0,0,4.9433,4.9505,4.9481,4.9667,4.9737,4.9805,4.9902,4.9873,4.9964,4.9951,4.9949,4.9968,5.0137,5.0174,5.0081,5.0374,5.0281,5.0304,5.0343,5.0373,5.0396,5.0382,4.9993,0,0,0,0,0,4.9475,4.9582,4.964,4.9799,4.9835,4.9863,4.9924,4.9918,4.999,5.002,5.0064,5.0136,5.024,5.0309,5.0408,5.0603,5.0619,5.0691,5.0714,5.0732,5.0752,5.0855,5.0887,5.0547,5.0547,5.0547,0,0,4.9564,4.9617,4.9685,4.982,4.9872,4.9983,4.9888,5.001,5.0091,5.0038,5.0194,5.023,5.031,5.0489,5.0571,5.0526,5.0849,5.0752,5.0766,5.0775,5.0874,5.0906,5.0934,5.0557,5.0555,5.0554,0,0,4.9782,4.9834,4.9971,5.0025,5.0106,5.0123,5.0156,5.0229,5.025,5.0406,5.0368,5.0465,5.0645,5.0703,5.0756,5.0994,5.096,5.1027,5.1147,5.1248,5.1275,5.1298,5.1381,5.1411,5.1046,5.1046,5.1046,0,4.9883,5.0048,5.0045,5.0169,5.0229,5.0184,5.0322,5.0376,5.0486,5.0528,5.0475,5.0698,5.0749,5.094,5.0998,5.1043,5.108,5.1016,5.1271,5.1295,5.1317,5.1396,5.1427,5.1053,5.1053,5.1052,5.1051,0,5.0166,5.0281,5.0382,5.0487,5.0558,5.0689,5.0706,5.0778,5.0766,5.0789,5.0948,5.1007,5.1116,5.1161,5.1152,5.1351,5.132,5.127,5.1176,5.1357,5.1431,5.1461,5.1064,5.1061,5.1059,5.1057,0,0,5.0449,5.0549,5.0586,5.0632,5.0717,5.0806,5.0934,5.1039,5.11,5.1178,5.1284,5.1436,5.1389,5.145,5.1446,5.1535,5.1717,5.1474,5.1476,5.1515,5.1937,5.1972,5.2008,5.1695,5.1701,5.1706,5.1929,0,5.0672,5.0895,5.0896,5.1102,5.1206,5.1165,5.1277,5.1341,5.1365,5.1458,5.1484,5.1591,5.1523,5.1559,5.1645,5.1677,5.1801,5.1661,5.1793,5.1798,5.1772,5.2047,5.2085,5.2293,5.1959,5.1964,5.1967,0,5.0962,5.1046,5.1262,5.1329,5.1373,5.1473,5.1568,5.1658,5.1729,5.174,5.1807,5.1789,5.1919,5.1822,5.2,5.1904,5.1959,5.1982,5.1991,5.2001,5.1892,5.2063,5.236,5.2391,5.2013,5.2009,5.2006,0,5.1143,5.1311,5.1461,5.1502,5.1585,5.1656,5.1694,5.176,5.1822,5.1905,5.1945,5.2044,5.2097,5.2173,5.2183,5.2112,5.2361,5.2265,5.2373,5.2373,5.2426,5.2422,5.2734,5.2465,5.2464,5.2464,5.2463,0,5.1391,5.1524,5.1543,5.1635,5.1783,5.1782,5.1928,5.1961,5.2019,5.2116,5.2088,5.2179,5.2187,5.2282,5.229,5.2435,5.246,5.2472,5.2472,5.2473,5.2471,5.2507,5.2492,5.2472,5.247,5.2468,5.2467,0,5.1618,5.1637,5.1797,5.1862,5.1881,5.1987,5.2042,5.213,5.2151,5.2274,5.2303,5.2336,5.2446,5.2462,5.2592,5.2597,5.277,5.2757,5.2745,5.2743,5.2848,5.2837,5.3193,5.3238,5.2941,5.2944,5.2946,0,5.1774,5.1875,5.195,5.2012,5.2054,5.2156,5.2218,5.2221,5.2288,5.2376,5.2453,5.2559,5.2644,5.2821,5.2856,5.2955,5.2942,5.306,5.2956,5.2954,5.2941,5.2934,5.2943,5.3079,5.3082,5.3085,5.3087,0,5.2048,5.2051,5.2142,5.2237,5.2312,5.2387,5.2457,5.251,5.2522,5.2598,5.2709,5.2775,5.2906,5.3011,5.3108,5.3147,5.3119,5.3119,5.3149,5.315,5.3138,5.3143,5.2797,5.3111,5.3108,5.3107,5.3105,5.3104,5.2243,5.2329,5.2395,5.2497,5.255,5.2616,5.27,5.2731,5.2823,5.2928,5.2925,5.3047,5.3114,5.3241,5.3286,5.3381,5.3343,5.3386,5.3397,5.3407,5.3416,5.3125,5.3399,5.3398,5.3398,5.3397,5.3397,0,5.2512,5.2552,5.2646,5.2744,5.2824,5.279,5.2866,5.2935,5.3041,5.3106,5.319,5.3316,5.3418,5.3461,5.356,5.3627,5.3617,5.3653,5.3647,5.3656,5.3446,5.3409,5.366,5.366,5.366,5.366,5.366,5.366,5.2662,5.2806,5.2818,5.2987,5.3026,5.3144,5.3189,5.325,5.3301,5.3443,5.3526,5.3553,5.3609,5.3712,5.3803,5.3813,5.385,5.3892,5.3896,5.3698,5.3671,5.3646,5.3611,5.39,5.3901,5.4098,5.41,5.4101]},{"header":{"parameterUnit":"m.s-1","parameterCategory":1,"la1":30.2991,"la2":30.254,"lo1":-89.0895,"lo2":-89.0444,"dy":0.0017,"dx":0.0017,"nx":28,"ny":28,"refTime":"2023-07-22T09:00:00:Z","depth":0,"parameterNumber":3,"parameterNumberName":"V-component_of_WINDS"},"data":[0,0,0,0,0,0,0,0,0,0,0,0,0,0,0,0,0,0,0,0,0,0,0,0,0,0,0,0,0,0,0,0,0,0,0,0,0,0,0,0,0,0,0,0,0,0,0,0,0,0,0,0,0,0,0,0,0,0,1.3376,1.3377,0,1.341,1.341,1.3411,1.341,1.341,1.3409,1.3409,1.3443,1.3444,1.3445,0,0,0,0,0,0,0,0,0,0,0,0,0,1.3309,1.331,1.3376,1.3377,1.3377,1.341,1.341,1.3411,1.341,1.341,1.3409,1.3409,1.3442,1.3444,1.3445,0,0,0,0,0,0,0,0,0,0,0,0,0,1.334,1.331,1.3376,1.3381,1.3381,1.341,1.3411,1.3411,1.3411,1.341,1.3409,1.3409,1.3442,1.3444,1.3446,1.3471,0,0,1.3452,1.3453,0,0,0,0,0,0,0,0,1.3338,1.3342,1.338,1.338,1.3381,1.3405,1.3399,1.3431,1.3411,1.3399,1.3409,1.3408,1.3431,1.3434,1.3441,1.3473,1.3474,1.3452,1.3453,1.3454,1.3454,0,0,0,0,0,0,0,1.3336,1.3341,1.339,1.338,1.3381,1.338,1.3384,1.3405,1.3418,1.34,1.34,1.3404,1.3431,1.344,1.3442,1.3475,1.3452,1.3454,1.3455,1.3456,1.3528,1.3528,0,0,0,0,0,0,1.3333,1.3339,1.3388,1.3391,1.3358,1.3382,1.3386,1.3398,1.3418,1.3421,1.3405,1.3404,1.3436,1.344,1.3443,1.3474,1.3454,1.3456,1.3457,1.3527,1.3528,1.3529,0,0,0,0,0,0,1.3332,1.3337,1.3387,1.3365,1.3371,1.3384,1.3398,1.3399,1.3408,1.3422,1.3424,1.3411,1.3436,1.3441,1.3464,1.3475,1.3457,1.3458,1.3526,1.3527,1.3528,1.3536,0,0,0,0,0,0,1.333,1.3337,1.3347,1.3365,1.3372,1.3408,1.3398,1.34,1.3411,1.3411,1.3428,1.3431,1.3436,1.3461,1.3466,1.3478,1.346,1.3525,1.3527,1.3528,1.3535,1.3537,1.3539,0,0,0,0,0,1.3327,1.3348,1.3348,1.3354,1.3386,1.3409,1.3413,1.3419,1.3412,1.3422,1.3431,1.343,1.3473,1.3464,1.3469,1.3481,1.3525,1.3526,1.3528,1.3534,1.3537,1.3539,0,0,0,0,0,0,1.3332,1.3351,1.3351,1.3378,1.3392,1.3409,1.3422,1.3422,1.3437,1.3436,1.3443,1.3447,1.347,1.3478,1.3467,1.3507,1.3498,1.3501,1.3501,1.3503,1.3506,1.3503,1.3462,0,0,0,0,0,1.3336,1.3354,1.3369,1.3392,1.3399,1.3409,1.3419,1.3423,1.3437,1.3442,1.3453,1.3466,1.3483,1.3494,1.351,1.3536,1.3539,1.3547,1.3549,1.3551,1.3553,1.3566,1.357,1.3534,1.3534,1.3534,0,0,1.3345,1.3358,1.3368,1.3393,1.3404,1.3421,1.3414,1.3433,1.3445,1.3445,1.3468,1.3476,1.3491,1.3516,1.3527,1.3523,1.3563,1.3553,1.3554,1.3556,1.3568,1.3572,1.3575,1.3535,1.3535,1.3535,0,0,1.337,1.3382,1.3402,1.3412,1.3429,1.3435,1.344,1.3456,1.3462,1.3485,1.3485,1.3499,1.3528,1.3538,1.3547,1.3574,1.3574,1.3579,1.3591,1.3604,1.3607,1.3609,1.3618,1.3621,1.3582,1.3582,1.3582,0,1.3379,1.3406,1.3412,1.343,1.3441,1.3441,1.3461,1.3471,1.3491,1.3498,1.3493,1.3528,1.3539,1.3565,1.3572,1.3579,1.3584,1.3578,1.3606,1.3608,1.3611,1.3619,1.3623,1.3582,1.3582,1.3582,1.3582,0,1.3416,1.3434,1.3448,1.3468,1.3479,1.3498,1.3506,1.3517,1.3519,1.3526,1.3548,1.3561,1.3578,1.3585,1.3587,1.3611,1.3608,1.3605,1.3596,1.3615,1.3623,1.3626,1.3583,1.3583,1.3583,1.3583,0,0,1.3446,1.3468,1.3473,1.3481,1.3498,1.3512,1.353,1.3548,1.3557,1.3571,1.3586,1.3609,1.3605,1.3616,1.3619,1.363,1.3649,1.3625,1.3625,1.3628,1.3676,1.3678,1.3682,1.3649,1.3649,1.365,1.3674,0,1.3472,1.3505,1.351,1.3539,1.3555,1.3555,1.3571,1.3583,1.3589,1.3603,1.361,1.3626,1.362,1.3626,1.3637,1.3645,1.3659,1.3643,1.3662,1.3663,1.3658,1.3686,1.3689,1.3712,1.3677,1.3678,1.3678,0,1.3508,1.3523,1.3553,1.3567,1.3574,1.3588,1.3604,1.3617,1.363,1.3634,1.3644,1.3646,1.3664,1.3654,1.3678,1.3667,1.3675,1.368,1.368,1.3682,1.3672,1.3689,1.3719,1.3722,1.3684,1.3683,1.3683,0,1.3526,1.3553,1.3575,1.3582,1.3599,1.3609,1.3616,1.3628,1.3638,1.3651,1.3657,1.3673,1.3681,1.3692,1.3697,1.369,1.3721,1.3712,1.3723,1.3723,1.373,1.373,1.3762,1.3736,1.3736,1.3735,1.3735,0,1.3555,1.3574,1.3583,1.3596,1.3616,1.3621,1.364,1.3647,1.3658,1.3672,1.3672,1.3685,1.3691,1.3704,1.3708,1.3727,1.3731,1.3733,1.3734,1.3733,1.3733,1.3739,1.3737,1.3736,1.3736,1.3736,1.3736,0,1.3579,1.3586,1.3609,1.3623,1.3627,1.3641,1.3652,1.3664,1.367,1.3687,1.3691,1.37,1.3716,1.3722,1.3741,1.3743,1.3765,1.3764,1.3761,1.3761,1.3772,1.3771,1.3809,1.3814,1.3784,1.3785,1.3785,0,1.3597,1.3611,1.3626,1.3635,1.3643,1.3658,1.3668,1.3673,1.3683,1.3698,1.3708,1.3723,1.3736,1.376,1.3768,1.3782,1.3782,1.3794,1.3784,1.3782,1.3781,1.378,1.3781,1.3796,1.3797,1.3797,1.3797,0,1.3628,1.3631,1.3645,1.366,1.3671,1.3683,1.3695,1.3702,1.3709,1.372,1.3735,1.3745,1.3764,1.3779,1.3794,1.38,1.3799,1.38,1.3803,1.3803,1.38,1.3801,1.3765,1.3799,1.3799,1.3799,1.3799,1.3799,1.3649,1.3661,1.3673,1.3689,1.3698,1.3708,1.372,1.3727,1.374,1.3756,1.3758,1.3775,1.3786,1.3805,1.3812,1.3825,1.3821,1.3826,1.3828,1.3829,1.3829,1.3798,1.3827,1.3827,1.3827,1.3827,1.3827,0,1.368,1.3687,1.3701,1.3717,1.3729,1.3727,1.3739,1.3749,1.3764,1.3774,1.3787,1.3804,1.3818,1.3827,1.3841,1.3849,1.3849,1.3852,1.3852,1.3853,1.3832,1.3827,1.3852,1.3852,1.3852,1.3852,1.3852,1.3852,1.3697,1.3717,1.372,1.3744,1.3751,1.3768,1.3775,1.3784,1.3792,1.3812,1.3824,1.3829,1.3838,1.3852,1.3865,1.3867,1.3872,1.3876,1.3877,1.3857,1.3855,1.3852,1.3848,1.3877,1.3877,1.3897,1.3897,1.3898]}]]